Location: Pescara
(42.4765°N, 14.1734°E)
Time: 00:36:04
(UTC+02:00)

ISS - Visible Passes

Search period start: 30 May 2017 00:00
Search period end: 09 June 2017 00:00
Orbit: 402 x 408 km, 51.6° (Epoch: 30 May)

Date Brightness Start Highest point End Pass type
(mag) Time Alt. Az. Time Alt. Az. Time Alt. Az.
30 May -1.1 00:00:48 10° NW 00:03:15 19° N 00:05:08 13° NE visible
30 May -1.1 01:37:00 10° NW 01:37:45 16° NW 01:37:45 16° NW visible
30 May -1.1 21:30:55 10° WNW 21:33:35 22° NNW 21:36:13 10° NE visible
30 May -0.9 23:08:40 10° NW 23:10:56 17° N 23:13:11 10° NE visible
31 May -1.7 00:45:03 10° NW 00:47:05 28° NNW 00:47:05 28° NNW visible
31 May -0.9 22:16:22 10° NW 22:18:35 16° N 22:20:48 10° NE visible
31 May -1.8 23:53:04 10° NW 23:55:53 25° NNE 23:56:30 24° NE visible
01 Jun -0.9 21:23:55 10° NW 21:26:14 17° N 21:28:33 10° NE visible
01 Jun -1.3 23:01:03 10° NW 23:03:36 20° NNE 23:05:58 11° ENE visible
02 Jun -1.5 00:37:15 10° NW 00:38:36 22° NW 00:38:36 22° NW visible
02 Jun -1.1 22:08:57 10° NW 22:11:16 17° N 22:13:34 10° NE visible
02 Jun -2.6 23:45:14 10° NW 23:48:07 40° NNE 23:48:07 40° NNE visible
03 Jun -1.0 21:16:40 10° NW 21:18:53 16° N 21:21:06 10° NE visible
03 Jun -2.0 22:53:13 10° NW 22:56:09 28° NNE 22:57:40 20° ENE visible
04 Jun -1.2 00:29:35 10° WNW 00:30:18 15° WNW 00:30:18 15° WNW visible
04 Jun -1.6 22:01:12 10° NW 22:03:51 22° NNE 22:06:29 10° ENE visible
04 Jun -2.9 23:37:24 10° NW 23:39:52 47° NW 23:39:52 47° NW visible
05 Jun -1.3 21:09:04 10° NW 21:11:28 18° N 21:13:51 10° NE visible
05 Jun -3.1 22:45:19 10° NW 22:48:32 49° NNE 22:49:28 36° E visible
06 Jun -2.3 21:53:16 10° NW 21:56:17 32° NNE 21:59:05 11° E visible
06 Jun -2.3 23:29:42 10° WNW 23:31:44 29° W 23:31:44 29° W visible
07 Jun -3.9 22:37:26 10° WNW 22:40:44 76° SW 22:41:23 53° SE visible
08 Jun -3.5 21:45:17 10° NW 21:48:33 60° NNE 21:51:05 16° ESE visible
08 Jun -1.4 23:22:30 10° W 23:23:43 15° WSW 23:23:43 15° WSW visible
